Wind_Speed
6 6 6 4 4 5 5 6 7 8 10 11 11 12 13 14 15 15 15 15 15 14 13 11 11 11 11 12 11 11 12 13 13 13 13 13 13 12 12 12 12 12 12 13 13 13 13 12 12 11 10 10 10 9 9 9 8 8 8 8 8 8 8 9 9 10 10 10 11 11 11 10 10 9 9 9 8 9 9 9 9 8 8 8 8
6 6 5 4 4 4 5 6 7 8 9 9 10 11 12 13 14 15 15 15 14 14 13 12 11 11 11 12 12 11 11 12 13 13 13 13 13 13 12 12 12 12 12 12 12 12 12 12 12 11 10 9 9 9 9 9 9 8 8 7 7 7 8 9 9 10 10 11 11 11 11 10 10 9 9 9 8 9 9 9 9 9 9 9 9
6 6 4 3 3 2 3 4 6 7 8 8 9 10 11 12 13 14 14 14 14 14 13 13 12 11 11 11 12 12 11 12 13 13 13 13 13 13 13 12 12 11 11 11 11 12 12 11 11 11 10 9 8 8 9 9 9 8 7 7 7 7 8 8 9 10 10 10 11 10 11 10 10 10 9 9 8 9 9 9 9 9 9 9 9
6 5 4 3 2 1 2 3 5 6 7 8 8 9 10 11 12 13 13 14 14 14 13 13 12 12 11 11 12 12 12 12 13 13 13 13 13 13 13 12 12 11 11 10 10 11 11 11 10 10 10 9 8 8 8 8 8 7 7 6 6 7 7 8 8 8 9 9 10 10 10 10 10 10 9 9 8 9 9 9 8 8 8 8 8
5 4 3 3 2 2 3 4 4 5 6 7 8 9 9 10 11 12 13 14 14 14 14 14 14 13 12 12 11 12 11 12 12 13 14 13 13 13 13 12 12 11 11 10 10 10 10 10 9 9 9 9 9 9 9 8 8 7 6 6 6 6 7 7 7 7 8 9 9 9 9 9 9 9 9 8 8 8 8 8 7 7 6 6 6
4 2 2 2 2 3 4 4 4 5 6 7 8 9 9 10 10 11 12 13 14 14 15 15 14 14 14 13 12 12 11 11 12 13 14 14 14 14 13 13 12 11 11 10 9 9 9 9 8 8 8 9 9 9 9 9 9 8 7 7 7 6 6 6 6 6 7 7 8 8 8 8 7 8 8 8 8 7 7 7 6 6 6 6 6
3 1 1 2 3 4 4 4 4 4 5 6 8 8 9 10 11 11 12 13 13 14 15 16 15 15 14 14 13 12 12 12 12 13 14 14 14 14 14 13 12 12 11 10 9 8 8 8 8 8 8 8 8 9 9 9 9 8 8 8 8 6 5 6 6 5 5 6 6 7 7 7 6 6 7 7 7 7 6 6 5 5 6 6 7
4 1 2 3 4 4 4 4 3 4 4 6 7 8 9 10 11 12 12 12 13 13 15 16 16 15 15 14 14 13 13 13 12 12 14 14 14 15 14 13 12 12 11 10 9 8 8 7 7 7 7 8 8 8 8 9 9 8 8 8 8 8 6 6 6 6 6 6 6 6 6 6 6 6 6 6 6 6 5 5 4 5 5 5 6
6 0 2 3 4 5 4 3 2 3 4 5 7 8 9 10 11 12 12 12 12 12 14 15 16 16 15 15 15 14 14 13 13 12 13 14 14 15 15 14 13 12 11 11 10 9 8 8 7 7 7 8 8 8 9 9 9 9 8 7 7 8 8 7 8 8 7 8 8 7 6 8 7 5 6 6 5 5 4 4 4 4 4 4 5
6 1 2 3 5 5 4 2 1 2 3 5 6 8 9 10 12 13 13 13 13 12 13 15 15 16 16 16 16 15 14 14 13 13 12 13 13 14 15 14 13 12 12 11 11 10 9 8 7 7 7 8 9 9 9 9 9 9 8 6 5 8 9 8 9 11 10 10 10 9 7 8 8 5 5 5 5 5 4 4 3 3 3 4 6
5 2 2 4 5 6 3 2 1 1 3 4 6 7 9 10 12 13 14 14 15 14 14 14 14 15 16 16 16 15 14 14 14 13 12 13 13 14 15 15 14 13 12 11 11 10 10 9 8 8 8 9 9 10 10 9 9 8 7 6 6 8 9 8 8 11 12 12 11 11 9 9 9 6 6 6 5 5 3 2 2 3 4 5 7
5 3 2 4 6 5 3 3 2 1 2 4 5 7 8 9 11 13 15 16 17 16 15 14 14 15 16 16 16 15 14 14 14 14 13 13 13 14 14 15 15 14 12 11 11 11 11 10 10 9 9 10 10 11 11 10 9 8 7 6 8 9 10 9 8 10 11 11 11 10 9 9 9 7 6 6 5 4 2 2 2 3 5 6 8
7 4 2 5 5 4 3 4 3 2 2 3 5 7 8 9 10 12 15 16 17 17 16 15 15 14 15 15 15 15 14 14 14 14 14 13 13 14 14 14 15 14 13 12 12 12 12 11 11 10 10 10 11 11 11 11 9 7 6 7 9 9 10 11 10 10 10 10 10 9 8 9 8 6 5 5 4 2 1 1 2 4 5 7 9
11 6 3 4 4 3 4 5 4 3 2 3 4 6 7 9 11 12 14 15 16 17 18 16 15 15 15 15 15 15 14 14 14 15 15 14 14 13 13 13 14 14 14 13 13 13 13 12 12 12 11 11 11 11 11 11 10 8 8 9 10 10 9 10 11 11 10 9 9 7 7 7 6 4 4 3 2 2 1 2 3 5 6 8 10
18 13 6 3 3 3 5 6 5 4 2 2 3 5 7 9 11 12 13 15 16 18 19 18 16 15 14 15 14 14 14 13 14 16 16 15 14 13 13 13 13 14 14 14 14 14 14 13 13 13 13 12 11 11 12 12 11 10 10 11 12 11 10 10 11 11 10 10 9 7 6 5 4 4 4 3 3 2 3 4 5 6 8 10 11
22 20 12 5 4 5 7 7 6 4 3 3 3 4 6 8 10 12 14 15 16 18 19 19 17 15 15 15 14 14 13 12 13 16 17 16 14 13 13 12 13 13 14 14 14 14 14 14 13 13 13 13 13 12 12 12 12 11 11 12 13 12 11 10 10 11 10 10 9 8 7 5 4 4 4 4 4 4 5 5 6 8 9 11 13
23 23 17 7 6 7 8 8 6 5 4 4 3 4 6 8 10 12 14 15 16 18 19 20 18 16 15 15 15 14 13 11 12 17 18 16 13 13 13 12 12 12 13 14 14 14 14 14 14 14 14 14 14 14 13 12 12 11 11 13 13 12 12 11 11 11 11 10 9 8 7 6 5 6 6 5 5 6 6 7 8 9 11 12 14
21 22 18 10 8 9 9 9 7 7 6 5 3 4 5 7 10 12 14 15 17 18 20 20 19 17 16 15 15 14 13 12 13 16 18 15 13 12 12 12 12 12 13 13 14 14 15 14 14 14 14 14 14 14 13 12 12 11 12 13 13 13 12 12 12 11 11 11 10 9 7 6 6 7 7 7 7 7 8 9 10 11 12 14 15
20 23 17 10 9 10 10 10 9 8 7 5 4 4 5 7 10 12 14 16 17 19 20 21 20 18 16 15 15 14 13 12 13 15 16 14 12 12 12 11 12 12 12 13 13 14 14 14 14 14 14 14 13 13 12 12 12 11 12 14 14 13 12 12 12 11 11 10 10 9 7 7 7 8 8 8 8 9 10 11 12 13 14 15 17
22 24 16 11 10 11 11 11 9 9 7 6 4 4 5 7 10 13 15 17 18 19 20 21 20 19 17 15 15 15 13 12 13 14 14 13 12 12 12 11 11 12 12 12 13 13 14 14 14 14 14 14 13 13 12 11 11 11 11 13 14 13 12 11 11 11 10 9 8 8 8 7 8 9 8 9 10 11 12 12 14 15 16 17 18
25 24 16 12 11 12 12 12 10 9 7 6 5 5 6 8 11 14 16 17 19 20 21 21 20 20 17 16 15 14 13 12 12 13 13 11 11 12 12 12 11 12 12 13 13 14 14 13 14 14 14 15 15 14 13 11 11 11 11 11 12 12 11 11 10 10 9 8 7 8 8 8 9 9 9 10 11 12 13 14 15 16 17 18 19
24 21 16 12 11 12 12 12 10 8 7 7 6 6 7 9 12 15 17 19 20 20 21 21 20 20 18 17 16 14 12 12 12 13 13 11 11 12 12 12 11 11 12 13 14 14 14 14 14 15 15 15 16 16 14 13 13 12 12 11 11 10 11 11 11 11 10 9 7 6 7 9 9 10 10 11 12 13 13 15 16 17 18 20 21
19 18 17 14 11 11 12 11 10 9 8 8 7 7 8 10 13 16 18 20 21 21 20 20 20 20 19 18 16 13 12 12 12 13 13 11 11 12 12 12 11 12 12 13 13 14 14 14 15 15 15 15 15 16 15 14 14 14 14 12 10 9 9 10 11 11 10 9 8 6 8 9 9 10 11 12 13 14 14 15 17 18 19 21 22
23 19 17 14 12 11 12 11 10 10 9 9 8 8 9 11 14 17 19 21 21 21 20 20 20 20 19 18 16 14 13 12 12 13 12 11 11 11 12 12 12 12 12 12 13 14 14 14 14 15 15 15 15 16 16 15 15 15 15 13 11 9 9 10 11 11 10 10 9 8 9 10 10 11 12 13 14 15 15 16 17 18 19 21 23
22 18 16 15 13 12 13 13 12 11 11 10 9 9 10 13 15 18 20 22 22 21 20 20 21 20 19 18 16 14 13 12 12 13 12 11 11 11 12 12 12 12 13 13 13 14 14 14 15 15 15 16 16 16 15 15 14 14 15 13 11 11 11 11 11 11 11 11 11 11 11 12 12 13 14 14 15 15 15 15 17 18 19 22 24
15 13 14 14 14 13 14 14 13 12 11 10 9 10 12 14 17 19 22 22 22 21 20 20 21 20 19 17 16 15 14 13 12 12 12 12 11 11 11 11 11 12 12 12 12 13 13 14 14 14 14 14 14 14 14 14 13 13 13 11 11 12 13 12 12 12 12 12 12 12 13 13 13 14 16 16 16 16 16 17 18 19 20 22 24
15 15 15 15 15 15 15 15 13 11 11 10 10 11 13 15 18 21 22 22 22 21 20 20 21 20 19 17 16 15 14 13 12 12 12 12 11 10 10 10 10 10 10 9 10 12 12 13 13 12 12 12 13 14 15 14 12 10 9 9 11 14 15 15 13 13 13 13 13 13 13 13 14 15 16 17 18 18 18 18 19 20 21 23 24
18 17 17 18 18 17 16 14 12 12 11 11 11 12 14 16 19 21 22 22 22 21 20 21 21 21 19 17 16 16 15 14 13 12 12 12 11 10 10 9 9 9 8 9 10 11 11 12 12 11 11 11 13 14 15 13 10 7 7 10 12 14 16 15 13 13 14 14 13 13 13 13 14 15 16 17 17 18 18 19 20 21 22 23 23
21 18 19 21 20 16 14 12 12 12 11 11 12 13 16 18 20 21 22 22 21 21 21 21 21 21 19 17 16 16 16 15 14 13 12 11 11 10 10 10 9 8 8 10 11 11 11 11 11 11 11 12 13 13 14 11 9 7 8 11 12 14 16 15 14 15 14 15 13 12 13 13 13 14 15 16 17 18 19 20 21 22 23 22 21
23 19 19 21 19 15 13 12 12 12 11 12 13 15 17 20 21 21 21 21 21 21 21 22 22 21 19 17 16 16 16 16 15 13 12 11 10 10 10 10 9 8 8 10 11 12 11 11 10 10 12 13 14 13 13 11 9 9 10 13 13 14 14 15 16 17 15 15 14 13 13 13 13 14 15 17 18 19 20 21 22 22 22 21 21
23 19 20 20 16 13 12 13 12 12 13 13 15 17 18 20 21 21 21 21 20 21 22 22 22 21 19 17 16 16 17 16 15 14 13 12 11 10 10 10 10 9 8 10 11 12 12 12 11 11 11 13 14 14 14 13 12 13 15 15 14 15 15 16 18 18 16 16 15 13 13 13 14 15 16 18 19 20 22 22 22 22 21 21 21
23 20 20 19 14 12 12 13 13 12 14 15 17 18 18 19 19 19 20 20 20 21 22 22 22 20 18 17 16 16 17 16 16 14 13 12 12 11 10 10 10 9 9 10 11 12 12 12 11 11 12 12 13 14 14 14 15 17 19 16 15 17 16 16 18 17 17 17 15 14 14 14 15 16 17 19 20 22 22 22 22 21 21 21 22
22 21 20 17 13 12 13 14 14 14 14 16 18 18 19 20 20 21 21 21 21 21 23 23 22 20 18 16 16 16 17 17 16 14 13 13 12 11 11 10 10 10 9 10 10 11 11 11 11 12 13 13 13 14 14 15 16 18 18 15 15 17 15 15 15 16 17 17 16 16 16 16 16 17 19 20 21 22 22 21 21 21 22 23 24
21 22 20 16 13 13 14 16 16 15 16 17 19 20 21 23 24 24 23 22 22 22 23 23 22 19 17 16 16 16 16 16 15 14 13 13 13 12 12 12 11 10 10 9 10 10 10 11 12 13 14 14 14 15 16 16 16 16 16 15 16 16 14 14 14 16 17 16 17 17 17 17 18 19 20 21 22 23 22 22 22 22 23 24 25
22 22 19 14 12 13 15 17 18 19 19 20 21 22 23 24 25 25 24 23 22 22 23 23 22 19 18 17 16 16 15 15 14 14 13 13 13 13 13 13 12 11 10 10 10 10 10 11 12 12 14 15 15 16 16 16 15 14 14 15 16 15 13 13 14 16 16 16 17 18 18 19 20 21 22 23 23 23 23 23 23 23 24 24 25
25 24 22 17 14 14 16 19 21 22 22 23 23 24 24 25 26 25 24 23 23 22 23 23 22 19 18 17 17 15 15 14 14 14 14 13 13 13 14 14 13 12 11 11 11 11 11 12 13 13 13 15 16 15 15 14 13 13 14 15 15 13 11 12 14 15 16 16 17 18 19 19 21 22 23 23 23 23 23 23 24 24 24 25 25
29 29 27 23 19 17 18 19 21 24 26 26 26 26 26 27 27 26 25 24 23 22 23 23 21 19 18 18 16 15 15 15 14 14 14 13 13 14 14 14 14 13 12 11 11 12 13 14 14 13 14 15 16 15 14 12 12 13 15 15 14 12 11 12 14 15 16 16 17 18 19 20 21 23 23 22 22 22 23 24 24 25 25 25 25
31 32 31 29 24 20 19 20 21 23 27 29 29 29 29 28 28 26 25 24 23 22 23 23 21 19 18 18 16 15 15 15 15 14 13 13 14 14 14 15 15 14 13 12 11 12 13 15 15 15 15 15 15 14 13 12 13 15 18 16 13 12 11 12 14 15 15 16 17 18 19 20 22 22 21 21 22 23 23 24 24 25 25 25 26
31 32 32 31 27 22 22 24 24 25 29 30 31 30 30 30 29 27 26 24 23 22 23 23 21 19 18 17 16 15 15 15 15 14 13 13 14 14 14 14 14 14 13 12 12 12 13 14 15 15 15 15 15 15 15 14 15 18 19 16 13 12 12 13 13 14 15 16 17 19 20 21 21 21 20 21 22 23 23 23 24 24 25 25 26
32 32 32 31 27 24 26 30 31 30 32 31 31 31 31 30 30 28 26 24 22 21 23 22 20 19 18 17 16 16 16 15 14 13 13 13 14 14 13 13 13 13 13 13 12 12 11 12 14 14 15 15 16 17 17 17 17 19 18 15 13 13 13 12 12 13 15 17 18 19 20 20 20 20 20 21 22 22 22 23 23 24 24 25 26
33 33 32 32 28 27 31 34 34 33 33 31 31 32 31 31 30 29 26 23 21 21 22 22 20 19 18 18 17 16 15 14 14 13 13 13 13 13 12 12 13 13 13 13 13 12 11 11 12 13 14 16 17 18 18 17 18 18 16 15 14 14 13 11 12 13 15 17 19 19 19 19 19 20 21 21 22 22 22 22 23 24 25 25 26
38 38 37 36 32 30 33 34 34 34 33 31 31 32 31 31 30 28 25 22 21 21 22 21 20 19 18 18 17 16 15 14 13 13 13 13 13 12 12 12 13 14 14 13 13 12 12 11 12 13 14 16 18 18 17 15 16 16 16 15 15 14 13 11 12 14 16 18 19 19 19 19 20 21 21 21 21 21 22 23 24 24 25 26 26
42 41 39 38 35 32 33 33 34 34 32 31 31 31 31 30 29 27 25 22 21 21 21 21 19 19 18 18 16 15 15 14 14 14 13 13 13 12 13 13 14 14 14 13 12 12 13 12 12 13 15 17 19 19 17 15 16 16 16 16 15 14 12 11 12 14 16 18 18 19 19 20 21 21 21 21 21 22 22 23 24 25 25 26 27
43 42 41 39 34 32 32 34 35 33 31 30 31 32 31 30 28 27 24 22 21 22 21 21 19 19 18 17 15 15 15 15 15 15 14 13 13 13 13 14 14 14 13 13 13 13 14 14 14 14 16 17 20 19 16 15 16 16 16 16 15 14 12 12 13 15 17 18 18 19 19 20 21 21 21 21 21 22 23 24 25 25 26 27 28
46 45 43 39 33 31 33 35 35 33 30 30 30 31 30 29 28 26 23 22 22 22 22 21 20 19 18 16 15 15 16 16 16 16 15 14 14 13 14 14 14 14 13 14 14 15 16 16 15 16 16 17 18 17 15 15 16 16 16 16 14 13 12 13 14 16 18 18 18 19 20 20 21 21 21 21 22 23 24 25 26 27 27 28 29
50 47 42 36 32 31 34 36 35 32 29 29 29 29 29 29 28 26 23 22 22 23 22 21 20 20 18 16 15 16 17 17 16 16 16 15 15 14 14 14 14 14 14 15 16 17 17 16 16 15 16 17 16 15 15 15 15 16 16 15 14 13 13 14 15 17 18 18 18 19 20 20 21 20 21 21 23 24 25 26 27 28 28 29 29
50 46 39 34 31 31 35 36 34 31 28 28 28 28 28 29 29 27 24 22 23 23 22 21 21 20 18 16 16 17 17 16 16 16 16 15 15 14 14 14 15 15 16 17 18 19 19 18 17 15 14 15 16 16 16 15 14 15 16 15 14 13 14 15 17 17 18 18 19 19 20 20 20 20 21 22 24 25 26 27 28 28 29 29 29
48 43 36 31 30 32 35 36 32 29 27 27 27 27 28 30 30 28 25 23 24 23 22 22 22 20 17 17 17 17 17 16 16 16 16 16 15 15 15 16 16 16 17 18 18 20 20 19 19 16 14 15 16 16 16 15 14 15 15 14 14 13 15 17 18 18 18 18 19 20 21 21 21 22 22 24 25 26 27 28 29 29 29 29 29
46 39 34 31 31 33 34 33 30 28 28 27 27 27 28 29 30 28 25 24 25 24 23 23 22 19 17 18 18 17 17 16 15 15 15 16 16 16 16 17 17 17 17 18 19 20 20 20 20 18 15 14 15 16 16 15 15 15 15 14 14 15 16 18 18 18 19 19 20 21 21 22 23 24 25 26 27 28 28 29 30 30 30 30 30
43 37 34 32 31 31 32 31 29 28 28 26 27 27 28 29 30 28 26 25 25 24 24 23 21 18 18 18 18 17 16 15 15 16 16 17 17 18 18 18 18 17 18 19 20 20 20 20 19 16 15 15 16 16 15 15 15 15 15 15 15 16 18 18 18 19 19 20 21 22 22 23 25 26 27 28 28 29 29 30 31 31 31 31 31
41 36 34 32 30 29 30 30 29 27 27 26 27 28 29 30 29 28 26 26 25 25 24 22 20 19 18 18 17 16 15 15 16 16 17 18 18 19 19 18 18 18 19 19 20 20 18 18 15 13 15 17 17 16 15 15 15 15 15 15 16 17 18 18 18 19 20 21 22 22 23 24 25 27 27 28 29 29 30 31 31 31 32 32 32
Wind_Direction
179 178 153 145 126 96 82 70 58 49 40 35 28 23 18 14 12 8 5 2 1 0 0 2 2 3 3 1 1 0 356 349 347 347 346 347 348 347 347 349 351 353 355 357 360 2 3 359 355 353 353 355 356 358 0 2 3 4 4 0 353 346 341 339 339 339 338 336 337 338 340 341 341 342 340 338 338 336 334 332 329 326 323 320 318
178 183 165 145 130 97 77 64 50 43 36 30 24 18 14 9 7 4 2 0 359 358 358 359 1 2 2 1 1 1 357 349 344 345 345 345 347 347 347 348 350 353 355 358 1 5 7 3 358 353 351 353 354 356 0 2 4 6 6 2 356 350 346 341 339 336 335 334 334 335 337 339 340 342 340 337 338 338 337 335 333 329 325 322 320
185 190 183 168 159 113 65 47 39 37 31 25 20 14 10 5 2 360 358 357 357 357 357 359 1 2 1 360 359 359 357 350 343 342 343 344 345 346 346 347 348 352 354 358 3 7 10 7 2 355 350 350 351 354 359 2 4 8 10 8 5 4 1 355 349 344 341 337 337 337 337 339 339 339 335 332 334 335 334 333 332 328 325 323 322
185 193 204 207 213 233 0 12 19 23 24 18 13 8 5 1 358 355 353 353 354 356 357 359 1 2 1 360 358 357 355 350 343 340 341 343 342 343 346 346 347 350 354 357 3 9 12 11 5 358 350 347 348 350 354 359 3 8 11 11 14 15 11 5 359 355 352 350 350 350 349 347 342 336 328 326 330 330 329 328 328 327 326 329 332
174 186 220 235 255 295 332 345 351 359 10 9 4 1 359 357 354 352 351 351 352 354 356 358 0 1 1 0 357 355 353 350 343 339 340 341 340 341 344 346 346 347 351 355 2 9 12 13 8 2 354 347 346 347 350 355 358 4 8 10 17 22 15 5 4 8 4 2 360 357 359 354 344 333 328 332 336 333 332 332 333 335 337 342 345
164 178 246 269 305 320 334 338 336 342 353 357 356 355 353 350 350 350 350 350 351 352 354 356 357 358 358 358 356 354 352 350 344 338 338 340 338 337 341 345 346 346 349 352 359 7 10 13 10 5 357 348 345 346 348 350 355 359 3 5 12 22 20 4 2 15 10 5 0 358 1 353 343 334 335 342 342 340 340 342 342 345 348 351 355
166 164 334 344 345 342 342 343 340 339 342 348 347 348 346 345 347 350 350 349 348 350 352 353 353 353 353 355 354 352 351 350 346 340 337 338 337 335 338 342 345 346 347 349 353 0 5 9 9 7 359 350 346 345 346 348 354 358 2 2 3 9 20 8 358 9 4 2 356 357 0 344 342 340 340 346 342 342 343 346 347 349 354 356 1
168 168 346 349 359 355 348 349 348 344 338 340 339 340 340 341 346 347 347 347 346 347 350 351 351 349 349 351 351 352 351 349 346 341 336 336 336 333 334 338 342 344 345 346 348 352 356 1 5 4 359 351 345 344 344 347 353 357 5 5 356 352 3 6 354 358 353 351 348 351 354 332 335 342 338 341 336 336 337 343 352 355 2 5 12
167 227 323 327 354 351 345 345 350 349 334 334 332 334 336 338 341 343 345 344 343 343 348 352 352 350 348 349 349 350 350 348 345 341 335 334 335 331 331 334 338 341 342 343 342 343 345 350 356 359 355 348 343 342 342 347 352 356 7 9 354 340 347 357 348 346 345 343 338 340 341 320 322 335 328 327 324 322 326 337 352 1 14 23 26
173 165 319 312 336 340 337 325 335 342 327 329 326 329 333 336 338 340 341 341 343 344 347 351 353 351 350 349 348 349 348 345 343 340 335 332 333 331 329 329 333 337 339 340 338 337 336 340 346 351 349 343 340 339 342 347 354 358 6 5 343 330 336 351 344 338 341 339 334 332 330 314 312 318 312 310 307 308 318 332 352 11 26 27 18
194 197 303 307 324 329 317 281 278 303 316 321 321 325 329 334 337 336 335 339 347 348 346 345 345 348 349 349 348 347 345 343 341 339 336 333 332 331 328 327 329 331 335 336 334 332 330 332 337 343 343 340 338 338 342 347 355 359 0 350 324 319 329 345 341 332 334 335 332 329 326 315 310 310 304 302 302 305 318 337 7 18 16 9 0
216 255 301 303 316 318 286 239 225 244 295 311 316 322 327 332 333 331 334 341 346 345 341 337 336 341 346 346 346 345 344 342 340 340 338 336 333 332 330 327 325 326 330 331 329 327 327 328 331 338 341 339 337 339 343 346 355 356 349 332 312 316 327 334 332 327 329 330 328 327 323 316 310 309 304 303 304 308 327 358 14 3 353 350 346
227 250 297 301 309 304 259 222 208 222 269 300 311 318 325 328 327 332 338 339 339 338 335 333 333 336 341 342 342 343 343 342 341 342 341 339 335 333 330 327 324 323 325 327 326 326 326 328 330 335 340 341 339 340 342 345 351 347 336 315 307 317 325 325 324 325 326 325 324 322 319 313 309 307 304 301 301 305 336 352 343 339 336 336 337
254 256 266 291 297 272 235 216 203 209 248 285 307 315 321 325 330 336 336 334 332 333 331 330 331 332 336 338 340 342 342 342 344 344 342 338 335 333 331 328 325 322 323 324 325 326 327 328 331 334 337 339 339 340 341 346 349 340 328 311 311 319 319 318 319 322 323 322 321 319 314 309 306 304 295 287 282 285 295 306 314 321 325 329 332
264 262 251 262 275 244 223 212 199 203 228 261 294 310 321 330 335 334 330 328 328 328 328 328 328 329 332 335 339 341 341 342 347 348 342 337 335 335 332 331 329 325 322 321 323 324 326 327 330 333 334 334 337 341 342 347 349 341 329 317 319 322 318 318 317 320 322 323 322 317 312 304 303 298 283 270 263 269 282 297 306 314 321 326 329
264 260 248 225 229 229 220 211 199 203 216 237 277 306 325 332 333 331 328 325 324 325 326 326 325 325 329 333 337 339 337 339 347 350 345 338 336 337 335 334 332 327 322 319 319 320 322 324 327 331 331 331 335 342 345 351 351 342 332 322 323 325 323 322 318 320 324 324 321 317 314 308 303 292 283 275 272 278 287 298 306 313 320 323 325
268 256 242 206 205 219 216 213 204 205 209 229 267 307 326 332 331 330 325 322 322 323 323 324 324 323 326 331 335 335 333 334 340 348 348 342 338 339 337 337 334 328 322 317 315 316 318 320 324 328 330 331 337 343 345 351 352 342 331 323 325 328 326 325 323 325 327 325 321 318 316 310 299 288 286 285 285 289 294 301 308 314 318 320 321
263 246 231 190 196 214 214 216 207 206 209 226 260 300 322 330 330 326 321 320 322 322 321 323 324 323 325 328 330 330 329 330 336 346 349 344 338 338 337 338 336 330 324 319 316 313 313 316 320 325 329 332 337 341 341 347 349 339 329 323 328 331 328 327 327 327 326 323 319 316 313 307 293 285 285 288 291 294 297 302 307 312 314 316 317
246 236 220 179 197 213 217 219 210 208 210 224 253 291 319 326 325 323 321 322 323 321 321 323 326 325 324 324 324 326 328 331 339 346 348 344 337 334 335 338 338 334 327 321 315 310 309 312 318 322 324 328 331 333 334 342 344 337 329 325 330 333 329 327 325 322 321 319 316 311 306 298 288 285 287 290 292 294 298 303 306 310 312 313 315
239 235 210 175 200 213 219 221 214 211 213 226 248 282 307 318 321 323 323 323 323 322 322 324 327 326 325 321 320 325 329 334 340 343 344 342 338 334 335 337 337 333 326 318 312 310 311 312 314 314 316 318 319 321 326 336 337 330 328 326 329 331 328 325 320 317 317 316 312 308 304 295 288 288 289 290 292 294 299 303 307 310 311 312 313
239 233 201 177 200 210 220 223 219 218 220 232 247 274 298 313 320 324 324 323 323 323 323 325 326 326 325 321 319 325 330 334 337 338 339 338 340 339 337 337 334 328 322 317 314 313 313 312 310 309 312 314 314 315 318 324 321 319 321 324 328 329 324 321 316 313 315 313 311 311 305 295 292 293 293 293 294 296 301 305 308 310 311 311 312
233 219 189 178 200 212 222 227 225 226 230 240 252 273 297 313 320 324 325 324 326 325 323 323 324 323 323 321 320 325 330 331 331 333 334 333 336 338 339 337 331 325 320 317 315 315 315 314 312 312 313 313 313 313 316 317 313 311 313 318 323 322 319 316 312 314 317 315 317 312 298 293 295 298 298 297 298 299 303 307 309 309 310 311 313
214 200 186 183 197 211 224 231 231 232 239 245 256 277 299 313 320 324 325 326 328 326 323 321 320 321 322 321 322 324 326 326 327 330 333 329 328 333 336 333 328 323 319 315 312 312 315 316 313 312 312 312 311 311 314 313 310 308 307 311 314 311 312 310 308 310 312 314 318 306 293 301 306 304 301 300 299 301 304 306 307 308 310 311 313
208 194 188 188 194 209 224 232 234 237 242 246 258 280 300 312 319 323 326 328 329 326 322 319 317 318 321 322 322 323 323 324 326 329 330 325 321 324 329 328 324 319 315 313 311 311 313 313 311 311 311 310 309 308 309 305 303 303 301 303 303 301 305 305 303 304 305 310 312 303 302 312 311 304 301 299 299 300 302 303 304 306 309 311 312
218 197 188 195 198 208 223 231 235 238 243 249 262 283 300 310 318 323 327 329 329 325 320 316 315 317 320 321 321 321 323 325 326 328 326 320 318 319 322 323 319 315 312 310 309 310 311 310 310 312 311 309 307 307 308 302 295 295 294 295 297 298 302 300 299 301 303 307 308 308 312 315 309 303 301 300 300 300 301 303 305 307 311 312 313
222 213 203 205 206 211 222 231 235 240 245 253 267 285 300 310 318 324 326 328 327 324 318 315 314 316 319 319 320 322 324 325 326 326 320 316 316 317 317 318 315 312 308 304 303 307 308 308 310 312 311 308 307 308 310 301 291 290 288 292 297 296 296 293 295 299 302 305 308 312 314 311 306 303 303 303 303 303 305 307 307 309 311 312 313
233 238 228 220 216 215 222 230 237 243 249 257 272 288 301 311 319 324 326 326 325 321 317 314 314 316 317 317 320 322 323 324 324 321 315 312 312 313 315 316 314 308 304 298 298 304 306 307 309 312 311 307 306 311 312 299 288 289 289 296 298 292 287 284 290 300 304 308 311 313 310 305 302 301 302 302 302 303 305 305 306 307 309 310 311
251 249 237 228 221 217 223 232 239 245 251 262 276 290 301 311 318 322 323 324 323 319 316 313 313 315 315 317 319 321 323 323 321 316 311 309 308 311 315 318 315 303 294 292 296 300 302 303 305 308 308 304 304 311 316 303 282 281 293 298 294 289 283 279 295 312 310 311 314 312 306 301 301 301 300 299 300 301 302 303 305 307 308 309 310
258 249 232 224 219 219 226 236 243 248 255 266 278 291 301 309 314 315 318 322 321 318 315 314 313 313 314 316 318 320 323 322 317 313 309 305 305 313 316 316 314 302 288 286 292 295 297 299 300 303 305 303 300 307 318 308 283 281 294 297 295 293 283 276 303 322 315 312 314 310 305 301 301 300 298 298 298 300 301 303 305 307 307 307 309
252 244 228 220 217 219 229 241 248 254 262 272 283 293 301 307 309 309 312 317 319 317 314 314 312 311 314 316 317 319 321 320 316 312 308 305 305 310 310 309 310 305 292 285 287 290 293 297 299 300 300 298 295 301 311 303 283 281 295 302 299 298 289 277 300 321 316 309 310 307 305 301 300 298 296 297 298 300 302 304 306 306 306 308 310
240 233 225 218 213 218 232 245 253 261 268 276 285 293 301 307 307 306 308 314 317 317 315 314 312 311 314 316 317 319 320 318 314 311 309 306 304 303 301 301 303 302 292 285 284 286 290 297 301 301 296 292 292 298 305 298 280 275 289 298 296 300 297 285 299 317 311 306 308 308 305 301 299 297 296 298 300 302 304 305 306 306 308 311 313
226 220 219 212 206 219 237 250 257 263 270 279 286 293 300 306 308 308 311 314 316 317 315 314 311 312 314 316 318 318 318 316 313 312 310 306 303 300 297 294 294 292 288 285 285 288 291 297 302 302 295 291 294 296 296 291 280 276 283 287 294 305 302 290 299 309 305 304 309 306 303 300 299 297 298 299 301 303 304 305 306 309 312 313 314
216 211 212 207 207 225 243 252 257 262 270 279 284 289 294 298 302 305 311 314 316 316 315 313 311 311 314 315 316 316 316 314 313 312 308 303 300 298 296 293 290 287 284 285 288 290 293 298 301 300 295 294 297 297 293 287 279 279 279 278 295 309 301 292 298 301 300 303 305 302 300 300 300 299 300 301 303 304 305 307 309 312 314 315 314
208 207 209 211 222 239 252 256 260 265 270 276 280 285 289 292 294 299 306 311 315 315 314 312 309 309 312 312 312 314 314 311 307 305 301 298 297 298 298 296 293 288 284 285 286 288 293 300 301 297 297 300 299 300 300 291 281 281 275 275 296 305 297 294 298 296 298 301 301 300 300 301 301 302 303 306 307 308 309 310 312 314 314 314 313
203 210 218 225 240 254 262 266 270 272 273 276 279 283 286 289 292 296 301 307 312 313 312 310 307 308 310 310 311 312 308 303 299 297 296 295 296 299 299 298 296 294 290 287 286 285 289 295 297 298 301 302 298 300 302 292 281 277 270 280 297 297 290 293 294 293 295 298 298 298 300 302 303 304 307 308 309 310 311 310 310 311 311 311 312
208 218 229 238 248 257 265 271 274 276 277 278 279 283 286 288 291 295 298 304 309 311 310 306 305 307 308 309 309 307 301 296 294 293 294 294 295 298 300 300 300 299 296 290 285 281 285 289 292 297 301 299 297 299 300 288 275 272 277 289 296 290 289 291 290 291 292 293 294 295 298 300 302 304 305 306 307 308 308 307 307 308 310 312 314
214 222 231 239 248 258 268 273 277 280 281 281 281 284 286 288 290 293 295 301 305 307 306 303 303 305 306 306 304 302 297 292 290 290 292 292 291 295 298 300 301 302 301 295 288 283 284 286 288 294 296 296 296 298 297 283 265 272 288 296 295 292 292 289 287 288 288 288 288 290 293 296 298 299 301 303 304 305 306 308 310 312 314 315 316
218 224 230 237 245 259 271 273 278 286 285 282 282 284 286 287 288 291 293 297 301 303 302 299 300 302 302 302 300 297 292 287 286 287 287 285 285 290 294 297 300 302 303 300 296 288 284 282 285 291 293 295 296 294 293 280 267 281 296 297 293 290 285 279 281 283 283 283 284 286 289 292 294 295 299 302 303 305 307 309 312 315 315 316 316
225 228 231 235 242 259 271 269 273 288 291 284 282 282 282 283 285 288 291 295 297 298 298 296 297 298 298 299 296 291 287 284 285 284 282 281 284 288 291 294 297 299 300 299 295 289 283 278 279 285 289 294 294 291 287 277 272 282 290 290 284 278 273 274 277 279 281 280 282 284 286 289 291 294 298 301 303 304 307 310 313 314 314 314 314
231 234 234 237 245 261 272 269 268 282 291 286 282 280 279 279 282 285 288 292 294 293 293 293 293 294 295 294 291 288 286 284 284 281 280 283 287 289 290 293 296 297 296 295 291 287 282 276 275 280 286 291 292 290 288 284 279 278 281 281 275 269 268 272 274 276 276 277 280 283 286 289 292 295 298 300 302 304 308 311 312 312 312 312 312
233 238 239 241 247 262 272 270 267 277 286 284 280 279 276 277 279 282 285 291 292 289 289 289 289 290 291 291 290 287 286 285 282 279 280 284 287 288 291 295 297 297 297 295 291 287 282 276 275 278 285 291 292 289 287 287 283 277 275 274 270 267 268 270 270 272 274 277 282 286 290 293 295 298 299 301 304 307 310 312 312 313 312 312 312
238 241 242 243 249 261 268 267 267 274 280 280 278 276 274 274 275 278 283 289 289 285 285 285 284 287 289 289 288 287 286 284 280 279 281 285 288 290 293 296 298 299 301 299 296 292 286 280 276 278 285 290 290 287 281 280 278 274 271 269 267 265 266 267 268 272 277 282 287 291 295 297 299 301 302 305 309 311 313 313 314 313 312 313 314
242 244 245 248 256 263 263 264 268 272 274 275 275 273 271 271 273 277 281 286 285 281 281 280 281 284 287 287 286 285 283 280 279 281 284 288 291 293 293 294 298 301 303 303 301 297 292 287 281 280 284 287 289 286 280 274 272 270 269 266 264 263 264 266 270 275 280 285 290 294 298 300 302 303 306 310 312 313 314 314 313 313 314 316 317
246 249 252 256 262 263 261 265 268 269 270 272 272 271 270 271 274 277 279 282 280 278 277 278 279 282 283 283 282 279 276 276 279 282 285 290 292 292 292 293 297 300 302 303 302 300 297 293 289 285 284 287 287 284 281 276 271 269 267 265 263 261 261 266 272 278 283 288 293 296 298 300 303 306 309 311 312 313 313 313 313 315 318 320 320
251 255 257 260 263 263 264 266 267 268 269 270 270 270 271 272 274 275 276 276 276 275 275 276 277 279 279 279 277 273 272 275 278 282 284 288 290 290 291 293 296 297 299 302 301 299 296 294 292 287 285 287 282 275 275 277 273 268 264 261 259 258 261 268 275 281 285 289 293 296 299 302 304 308 310 311 311 311 311 313 316 319 321 321 320
255 257 258 259 261 262 264 266 266 267 268 269 269 270 271 272 272 272 271 271 273 273 273 274 275 275 276 275 271 269 272 276 278 280 283 286 287 288 290 292 293 294 297 299 299 298 296 294 292 287 287 286 275 268 270 271 269 265 259 254 253 256 263 271 276 281 285 288 292 296 300 302 305 308 309 309 309 310 312 315 319 320 321 321 319
254 256 257 258 260 261 263 265 265 265 266 268 269 269 270 270 269 268 267 268 270 271 271 272 272 273 273 271 269 270 272 275 277 279 282 283 283 284 287 289 291 294 296 297 297 297 296 295 291 285 284 276 265 268 270 264 262 260 254 250 250 257 266 272 277 280 284 288 293 297 299 301 304 305 306 307 308 310 313 317 319 321 320 320 319
251 253 254 257 260 261 261 263 265 265 266 267 268 268 268 267 266 265 265 266 268 269 270 270 270 271 271 269 269 270 272 274 276 277 278 279 280 281 285 289 293 295 297 297 297 298 295 292 287 281 275 265 260 267 267 262 260 255 251 249 251 259 267 272 278 281 285 290 295 298 299 300 301 302 303 304 307 311 314 317 319 320 320 320 320
248 250 253 258 259 258 260 264 265 264 263 264 266 267 266 266 265 265 265 264 266 268 268 267 268 269 268 266 268 270 272 272 272 273 275 276 277 280 285 289 294 296 297 297 297 297 292 286 284 278 267 258 257 261 262 260 258 251 247 248 253 261 267 272 277 281 287 292 297 300 300 300 300 301 302 303 307 311 315 317 318 319 320 321 321
245 248 252 256 256 256 261 264 262 259 260 262 263 263 264 265 266 265 264 263 265 266 266 266 266 265 263 264 267 270 270 266 266 269 272 274 275 279 284 289 293 294 295 295 295 296 290 282 283 276 263 260 258 258 260 258 253 246 244 249 256 262 267 272 277 283 290 295 299 300 300 301 301 301 303 305 308 312 315 316 317 319 321 321 321
243 246 250 253 253 255 260 260 257 256 259 260 261 261 262 264 265 265 263 263 264 265 264 264 263 261 261 263 267 268 264 261 263 267 269 272 275 279 285 290 293 292 291 291 293 294 288 279 277 266 260 264 259 253 254 249 243 241 245 252 258 263 267 272 278 285 292 297 299 300 302 303 303 304 305 307 310 313 314 316 317 320 321 321 321
Height
5885 5884 5884 5884 5883 5883 5882 5882 5881 5881 5880 5880 5879 5879 5879 5878 5878 5878 5877 5877 5876 5876 5876 5875 5874 5874 5873 5873 5873 5872 5872 5871 5871 5870 5869 5868 5867 5866 5866 5865 5864 5863 5863 5862 5861 5860 5859 5859 5858 5858 5857 5856 5855 5854 5853 5853 5852 5851 5851 5850 5850 5850 5850 5850 5849 5849 5849 5848 5848 5848 5847 5847 5847 5846 5846 5846 5845 5845 5845 5845 5844 5844 5844 5844 5843
5884 5884 5883 5883 5883 5882 5882 5882 5881 5880 5880 5880 5879 5879 5879 5879 5878 5878 5877 5877 5876 5876 5875 5875 5874 5874 5873 5873 5872 5872 5872 5871 5871 5870 5869 5868 5867 5866 5866 5865 5864 5864 5863 5862 5861 5860 5860 5859 5859 5858 5857 5856 5856 5855 5854 5853 5852 5851 5851 5850 5850 5850 5849 5849 5849 5849 5849 5848 5848 5848 5847 5847 5847 5846 5846 5845 5845 5845 5845 5844 5844 5844 5844 5843 5843
5883 5883 5883 5882 5882 5882 5882 5882 5881 5880 5880 5880 5880 5879 5879 5879 5878 5878 5878 5877 5876 5876 5875 5875 5874 5874 5873 5872 5872 5872 5872 5871 5870 5870 5869 5868 5867 5866 5866 5865 5864 5864 5863 5862 5861 5861 5860 5859 5859 5858 5858 5857 5856 5855 5854 5853 5852 5852 5851 5850 5850 5850 5849 5849 5849 5849 5848 5848 5848 5848 5847 5847 5847 5846 5846 5845 5845 5844 5844 5844 5844 5844 5843 5843 5843
5883 5883 5882 5882 5882 5882 5882 5881 5881 5881 5880 5880 5880 5879 5879 5879 5879 5878 5878 5877 5876 5876 5875 5874 5874 5873 5873 5872 5872 5872 5871 5871 5870 5870 5869 5868 5867 5866 5866 5865 5864 5864 5863 5862 5861 5860 5860 5859 5858 5858 5858 5857 5856 5855 5854 5853 5852 5852 5851 5850 5850 5850 5849 5849 5849 5849 5848 5848 5848 5847 5847 5847 5846 5846 5845 5845 5844 5844 5844 5844 5844 5843 5843 5843 5842
5882 5882 5882 5882 5882 5882 5881 5881 5881 5881 5880 5880 5880 5879 5879 5879 5879 5878 5878 5877 5876 5876 5875 5874 5873 5873 5873 5872 5872 5872 5871 5871 5870 5869 5869 5868 5867 5866 5866 5865 5865 5864 5863 5862 5861 5860 5860 5859 5858 5858 5858 5857 5856 5856 5855 5854 5853 5852 5851 5851 5850 5850 5849 5849 5849 5849 5848 5848 5848 5847 5847 5847 5846 5846 5845 5845 5844 5844 5844 5844 5843 5843 5843 5842 5842
5881 5882 5882 5882 5881 5881 5881 5881 5881 5881 5880 5880 5880 5880 5879 5879 5879 5879 5878 5877 5876 5876 5875 5874 5873 5873 5872 5872 5871 5871 5871 5871 5870 5869 5869 5868 5867 5866 5866 5865 5864 5864 5863 5862 5861 5860 5860 5859 5858 5858 5858 5857 5857 5856 5856 5855 5854 5853 5852 5851 5851 5851 5850 5849 5849 5848 5848 5848 5848 5847 5847 5847 5846 5846 5845 5844 5844 5844 5844 5844 5843 5843 5843 5842 5842
5881 5881 5881 5881 5881 5881 5881 5881 5881 5880 5880 5880 5880 5880 5879 5879 5879 5879 5878 5877 5876 5876 5874 5873 5873 5872 5872 5871 5871 5871 5871 5870 5869 5869 5868 5868 5867 5866 5865 5865 5864 5864 5863 5862 5861 5861 5860 5859 5858 5858 5858 5857 5857 5857 5856 5855 5855 5854 5853 5852 5852 5851 5851 5850 5849 5849 5848 5848 5848 5847 5847 5846 5846 5845 5845 5844 5844 5844 5844 5844 5843 5843 5843 5842 5842
5880 5880 5880 5880 5880 5880 5881 5881 5881 5880 5880 5880 5879 5879 5879 5879 5879 5878 5878 5877 5877 5876 5874 5873 5872 5872 5871 5871 5871 5871 5870 5870 5869 5868 5868 5867 5867 5866 5865 5865 5864 5864 5863 5862 5862 5861 5860 5859 5859 5858 5858 5857 5857 5857 5856 5856 5855 5854 5854 5853 5852 5851 5851 5851 5850 5850 5849 5848 5848 5847 5847 5846 5845 5845 5844 5844 5844 5844 5843 5843 5843 5843 5842 5842 5842
5879 5880 5880 5880 5880 5880 5880 5880 5880 5880 5880 5880 5879 5879 5879 5878 5878 5878 5878 5877 5877 5876 5874 5873 5872 5871 5871 5871 5870 5870 5870 5870 5869 5868 5867 5867 5866 5866 5865 5864 5864 5863 5863 5862 5862 5861 5860 5859 5859 5858 5858 5858 5857 5857 5856 5856 5855 5855 5854 5853 5852 5851 5851 5851 5850 5850 5849 5848 5848 5847 5846 5846 5845 5844 5844 5844 5844 5843 5843 5843 5843 5842 5842 5842 5842
5878 5878 5879 5879 5879 5879 5880 5880 5880 5880 5880 5879 5879 5879 5879 5878 5878 5877 5877 5877 5876 5875 5874 5873 5872 5871 5871 5870 5870 5870 5869 5869 5869 5868 5867 5866 5866 5865 5865 5864 5864 5863 5863 5862 5862 5861 5860 5860 5859 5858 5858 5858 5857 5857 5856 5856 5855 5855 5855 5853 5852 5851 5851 5851 5850 5849 5849 5848 5848 5847 5847 5846 5845 5844 5844 5844 5844 5843 5843 5843 5842 5842 5842 5841 5841
5877 5877 5878 5878 5878 5878 5879 5879 5880 5880 5879 5879 5879 5879 5879 5878 5877 5877 5876 5876 5875 5874 5873 5873 5872 5871 5870 5869 5869 5869 5869 5869 5868 5867 5867 5866 5866 5865 5865 5864 5864 5863 5863 5862 5862 5861 5860 5860 5859 5858 5858 5858 5857 5857 5856 5856 5856 5855 5855 5853 5852 5851 5851 5851 5850 5849 5849 5848 5847 5847 5846 5846 5845 5844 5844 5844 5844 5843 5843 5842 5842 5842 5842 5841 5841
5877 5877 5877 5877 5877 5878 5878 5879 5879 5879 5879 5879 5879 5879 5878 5878 5877 5877 5876 5874 5874 5873 5872 5872 5871 5871 5870 5869 5869 5868 5868 5868 5868 5867 5867 5866 5865 5865 5864 5864 5863 5863 5863 5862 5862 5861 5860 5860 5859 5858 5858 5858 5857 5857 5857 5856 5856 5856 5855 5853 5851 5851 5850 5850 5850 5849 5848 5848 5847 5846 5846 5845 5845 5844 5844 5844 5844 5843 5843 5842 5842 5842 5842 5841 5841
5877 5876 5877 5877 5876 5877 5877 5878 5879 5879 5878 5878 5878 5878 5878 5878 5877 5877 5875 5874 5873 5873 5872 5872 5871 5870 5870 5869 5869 5868 5868 5868 5867 5867 5866 5866 5865 5864 5864 5863 5863 5863 5862 5862 5862 5861 5860 5860 5859 5859 5858 5858 5857 5857 5857 5857 5857 5856 5854 5853 5851 5851 5850 5849 5849 5849 5848 5847 5847 5846 5846 5845 5845 5845 5845 5844 5844 5843 5843 5842 5842 5842 5841 5841 5840
5876 5876 5876 5876 5876 5876 5877 5877 5878 5878 5878 5878 5878 5878 5878 5877 5877 5876 5875 5874 5873 5872 5872 5871 5870 5870 5869 5869 5868 5868 5868 5867 5867 5867 5866 5865 5865 5864 5863 5862 5862 5862 5862 5862 5862 5861 5861 5860 5859 5859 5858 5858 5857 5857 5856 5856 5857 5856 5854 5852 5851 5851 5851 5849 5848 5848 5847 5847 5846 5846 5845 5845 5845 5844 5844 5844 5844 5843 5842 5842 5842 5841 5841 5840 5840
5876 5875 5875 5875 5875 5875 5876 5877 5877 5877 5877 5877 5877 5878 5877 5877 5876 5875 5875 5874 5873 5872 5871 5870 5870 5869 5869 5869 5868 5868 5867 5867 5867 5866 5866 5865 5864 5863 5863 5862 5862 5862 5862 5862 5861 5861 5860 5860 5859 5858 5858 5857 5857 5856 5856 5856 5856 5855 5854 5852 5851 5851 5851 5850 5849 5848 5847 5846 5846 5845 5845 5845 5844 5844 5844 5844 5843 5843 5842 5842 5841 5841 5841 5840 5839
5876 5875 5874 5874 5874 5874 5875 5876 5876 5877 5876 5877 5877 5877 5877 5876 5875 5875 5874 5874 5873 5872 5871 5870 5870 5869 5869 5868 5868 5867 5867 5866 5866 5866 5865 5864 5864 5863 5862 5862 5861 5861 5861 5861 5861 5860 5860 5859 5858 5858 5857 5857 5856 5856 5856 5856 5856 5855 5854 5852 5851 5851 5851 5850 5849 5848 5847 5846 5845 5845 5844 5844 5844 5844 5844 5843 5843 5842 5842 5842 5841 5840 5840 5839 5838
5875 5874 5872 5872 5873 5874 5874 5875 5875 5876 5876 5876 5876 5876 5876 5875 5875 5874 5874 5874 5873 5871 5870 5870 5869 5869 5868 5868 5867 5867 5866 5866 5866 5866 5865 5864 5863 5862 5862 5861 5860 5860 5860 5860 5860 5859 5859 5858 5858 5857 5857 5857 5856 5856 5855 5856 5856 5854 5853 5852 5851 5851 5850 5849 5848 5847 5846 5845 5845 5844 5844 5844 5844 5844 5843 5843 5843 5842 5842 5841 5841 5840 5839 5838 5838
5873 5873 5870 5870 5872 5873 5873 5874 5875 5875 5875 5875 5875 5875 5875 5875 5874 5874 5874 5873 5872 5871 5870 5869 5869 5869 5868 5868 5867 5866 5866 5865 5865 5865 5864 5863 5862 5862 5861 5860 5860 5859 5859 5859 5859 5859 5858 5858 5857 5857 5857 5856 5856 5855 5855 5855 5855 5854 5852 5851 5851 5850 5849 5848 5847 5846 5846 5845 5844 5844 5844 5844 5844 5844 5843 5843 5842 5842 5841 5841 5840 5839 5838 5837 5836
5871 5870 5868 5868 5870 5872 5872 5873 5874 5874 5875 5875 5874 5874 5874 5874 5874 5874 5874 5873 5871 5871 5870 5869 5869 5868 5868 5867 5866 5865 5865 5865 5865 5864 5863 5862 5862 5861 5860 5859 5859 5859 5859 5858 5858 5857 5857 5857 5856 5856 5856 5855 5855 5854 5854 5854 5853 5853 5852 5850 5850 5849 5848 5847 5846 5845 5845 5844 5844 5843 5843 5843 5843 5843 5843 5842 5842 5841 5841 5840 5839 5838 5837 5836 5835
5869 5868 5866 5867 5869 5871 5871 5872 5873 5873 5874 5874 5873 5873 5873 5874 5874 5874 5873 5872 5871 5870 5870 5869 5868 5868 5867 5866 5865 5865 5865 5864 5864 5863 5862 5862 5861 5860 5859 5859 5858 5858 5858 5857 5856 5856 5856 5856 5855 5855 5855 5854 5853 5853 5853 5852 5852 5851 5850 5849 5849 5848 5847 5847 5846 5845 5844 5843 5843 5843 5843 5843 5842 5842 5842 5842 5841 5841 5840 5839 5838 5837 5836 5835 5834
5866 5866 5865 5866 5868 5869 5870 5871 5872 5872 5873 5873 5873 5872 5873 5873 5873 5873 5872 5871 5871 5870 5869 5868 5867 5866 5866 5865 5865 5865 5864 5864 5863 5862 5862 5861 5860 5860 5859 5858 5858 5858 5857 5856 5856 5855 5855 5855 5854 5854 5853 5853 5852 5852 5852 5851 5851 5850 5849 5848 5847 5847 5847 5846 5845 5844 5844 5843 5843 5843 5843 5842 5842 5841 5841 5841 5840 5840 5839 5838 5837 5836 5835 5834 5833
5863 5863 5863 5864 5867 5868 5868 5869 5870 5871 5871 5872 5872 5872 5872 5872 5872 5871 5871 5870 5870 5869 5868 5867 5866 5865 5865 5864 5864 5864 5863 5863 5862 5861 5861 5860 5860 5859 5859 5858 5857 5857 5856 5856 5855 5854 5854 5854 5853 5853 5852 5852 5852 5851 5851 5850 5850 5849 5848 5847 5846 5846 5846 5846 5845 5844 5844 5843 5843 5842 5842 5841 5841 5841 5840 5840 5839 5838 5837 5837 5836 5835 5833 5832 5831
5860 5860 5861 5863 5865 5866 5867 5868 5869 5870 5870 5871 5871 5871 5871 5871 5871 5870 5870 5869 5869 5868 5867 5866 5865 5864 5863 5863 5863 5863 5862 5861 5861 5860 5860 5860 5859 5858 5858 5857 5856 5855 5855 5854 5854 5853 5853 5853 5852 5852 5852 5851 5851 5850 5850 5849 5848 5847 5847 5846 5846 5845 5845 5845 5844 5844 5843 5842 5842 5841 5841 5840 5840 5840 5839 5838 5838 5837 5836 5835 5834 5833 5832 5831 5830
5856 5857 5860 5862 5863 5865 5866 5867 5868 5868 5869 5870 5870 5870 5869 5869 5869 5869 5869 5868 5868 5867 5866 5865 5864 5863 5862 5862 5862 5862 5861 5860 5860 5859 5859 5859 5858 5857 5857 5856 5855 5854 5854 5853 5852 5852 5852 5851 5851 5851 5851 5850 5849 5849 5849 5848 5847 5846 5846 5845 5845 5844 5844 5844 5843 5843 5842 5841 5841 5841 5840 5839 5839 5838 5838 5837 5836 5835 5835 5834 5833 5832 5831 5829 5828
5855 5856 5858 5860 5862 5863 5864 5865 5866 5867 5868 5869 5868 5868 5868 5868 5868 5868 5867 5867 5867 5866 5865 5864 5863 5862 5861 5861 5861 5860 5860 5859 5859 5858 5858 5857 5856 5856 5855 5855 5854 5853 5853 5852 5851 5851 5850 5850 5850 5849 5849 5848 5848 5847 5847 5846 5845 5845 5844 5844 5844 5843 5843 5842 5842 5842 5841 5841 5840 5840 5839 5838 5838 5837 5836 5835 5834 5834 5833 5832 5831 5830 5829 5828 5826
5856 5856 5857 5858 5860 5861 5863 5864 5865 5866 5867 5867 5867 5867 5866 5867 5867 5866 5866 5866 5865 5864 5863 5862 5861 5861 5860 5859 5859 5859 5858 5858 5858 5857 5856 5855 5855 5855 5854 5853 5853 5852 5852 5851 5850 5850 5849 5849 5848 5848 5848 5847 5846 5846 5846 5844 5843 5843 5843 5843 5843 5842 5842 5842 5841 5840 5840 5840 5839 5839 5838 5837 5836 5835 5834 5834 5833 5832 5832 5830 5829 5828 5827 5826 5824
5855 5855 5856 5857 5859 5860 5861 5862 5864 5865 5865 5866 5866 5865 5865 5865 5865 5865 5865 5865 5864 5863 5862 5861 5860 5859 5859 5858 5858 5857 5857 5857 5856 5856 5855 5854 5853 5853 5853 5852 5852 5851 5851 5850 5849 5849 5848 5848 5847 5847 5847 5846 5845 5844 5844 5843 5842 5842 5842 5842 5841 5841 5841 5841 5840 5839 5839 5839 5838 5837 5837 5836 5835 5834 5833 5832 5831 5831 5830 5829 5828 5827 5826 5825 5823
5854 5854 5855 5857 5857 5858 5859 5861 5862 5863 5864 5864 5864 5863 5863 5863 5863 5864 5864 5864 5863 5861 5860 5859 5859 5858 5857 5857 5856 5856 5855 5855 5855 5854 5853 5852 5852 5851 5851 5851 5850 5850 5850 5849 5849 5848 5847 5847 5847 5846 5846 5845 5844 5843 5842 5841 5841 5841 5841 5841 5840 5840 5839 5839 5839 5838 5838 5837 5836 5836 5835 5834 5833 5832 5831 5831 5830 5829 5829 5827 5826 5825 5824 5823 5821
5853 5853 5854 5855 5856 5856 5857 5859 5861 5862 5863 5863 5862 5862 5862 5862 5862 5862 5862 5862 5861 5859 5858 5858 5857 5856 5856 5855 5855 5854 5854 5854 5853 5853 5852 5851 5851 5850 5850 5849 5849 5849 5848 5848 5847 5847 5846 5846 5846 5846 5845 5843 5842 5842 5841 5840 5840 5840 5840 5839 5839 5838 5838 5838 5837 5836 5836 5836 5835 5834 5833 5832 5831 5831 5830 5829 5829 5828 5827 5826 5825 5824 5822 5821 5819
5851 5851 5852 5853 5854 5855 5856 5857 5859 5860 5861 5861 5860 5860 5860 5861 5861 5861 5861 5860 5859 5858 5857 5856 5856 5855 5854 5854 5853 5853 5853 5852 5852 5851 5851 5850 5849 5849 5848 5848 5848 5848 5847 5847 5846 5845 5845 5845 5845 5844 5843 5842 5841 5841 5840 5839 5839 5839 5838 5838 5837 5837 5837 5836 5835 5834 5835 5834 5833 5832 5831 5831 5830 5829 5828 5827 5827 5826 5825 5824 5823 5822 5820 5819 5817
5849 5850 5850 5851 5851 5853 5854 5855 5857 5859 5859 5859 5859 5858 5859 5859 5859 5859 5859 5859 5857 5856 5855 5855 5854 5853 5853 5852 5852 5851 5851 5851 5850 5850 5849 5848 5847 5847 5847 5846 5846 5846 5846 5845 5844 5844 5843 5843 5843 5843 5841 5840 5839 5839 5839 5838 5838 5837 5837 5837 5836 5836 5835 5835 5834 5833 5833 5833 5832 5831 5830 5829 5828 5827 5826 5826 5825 5824 5823 5822 5821 5820 5818 5817 5815
5847 5848 5848 5849 5849 5851 5852 5854 5856 5857 5857 5857 5857 5857 5857 5858 5858 5858 5857 5857 5855 5854 5854 5853 5853 5852 5851 5850 5850 5850 5849 5849 5848 5848 5847 5846 5845 5845 5845 5845 5845 5844 5844 5843 5843 5842 5842 5842 5841 5841 5840 5839 5838 5838 5838 5837 5836 5835 5835 5835 5834 5834 5834 5833 5832 5831 5831 5831 5830 5829 5828 5827 5826 5826 5825 5824 5823 5822 5821 5820 5819 5817 5816 5814 5813
5844 5845 5846 5847 5847 5849 5851 5852 5853 5854 5855 5855 5855 5856 5856 5856 5856 5856 5856 5855 5854 5853 5852 5852 5851 5851 5849 5848 5848 5848 5847 5847 5846 5845 5845 5844 5843 5843 5843 5843 5843 5843 5842 5842 5841 5840 5840 5840 5840 5839 5838 5838 5837 5836 5836 5835 5834 5833 5833 5833 5833 5832 5832 5831 5831 5830 5830 5829 5828 5827 5826 5825 5824 5823 5823 5822 5821 5820 5819 5818 5817 5815 5813 5812 5811
5842 5844 5845 5846 5846 5848 5849 5850 5851 5852 5853 5853 5853 5854 5855 5855 5854 5854 5854 5853 5852 5851 5850 5850 5850 5849 5848 5847 5847 5846 5846 5845 5844 5844 5843 5842 5842 5841 5841 5841 5841 5841 5841 5840 5840 5839 5839 5838 5838 5837 5836 5835 5835 5834 5833 5832 5832 5831 5832 5832 5831 5831 5830 5830 5829 5828 5828 5828 5826 5825 5824 5823 5822 5821 5820 5820 5819 5818 5816 5815 5814 5813 5811 5810 5809
5840 5842 5843 5844 5845 5847 5848 5849 5850 5851 5851 5851 5852 5852 5852 5852 5852 5851 5851 5851 5850 5849 5848 5848 5848 5847 5846 5845 5845 5845 5844 5843 5843 5842 5842 5841 5840 5840 5839 5839 5839 5839 5838 5838 5838 5838 5837 5837 5836 5835 5834 5833 5833 5832 5831 5830 5830 5830 5830 5830 5830 5829 5829 5828 5827 5827 5827 5826 5825 5823 5822 5821 5820 5819 5818 5818 5817 5815 5814 5813 5812 5811 5810 5809 5807
5838 5840 5841 5842 5844 5845 5847 5848 5848 5849 5849 5849 5850 5850 5850 5850 5849 5849 5849 5849 5848 5847 5846 5846 5845 5845 5844 5843 5843 5843 5842 5842 5841 5841 5840 5839 5839 5838 5837 5837 5837 5837 5837 5836 5836 5836 5836 5835 5834 5834 5833 5832 5831 5830 5830 5829 5828 5828 5828 5828 5828 5827 5827 5826 5825 5826 5825 5824 5823 5822 5821 5820 5818 5817 5817 5816 5815 5814 5813 5812 5811 5810 5808 5807 5805
5835 5837 5839 5840 5842 5843 5845 5846 5846 5847 5847 5847 5847 5847 5848 5847 5847 5846 5846 5846 5845 5845 5845 5844 5843 5843 5842 5842 5841 5841 5841 5840 5840 5839 5839 5838 5837 5836 5836 5835 5835 5835 5834 5834 5834 5834 5833 5833 5832 5832 5832 5831 5830 5829 5828 5828 5827 5827 5826 5826 5826 5825 5824 5824 5824 5824 5824 5823 5822 5821 5820 5819 5818 5817 5816 5815 5814 5813 5812 5810 5809 5807 5805 5804 5802
5832 5834 5836 5838 5839 5841 5842 5843 5843 5844 5844 5844 5845 5845 5845 5845 5844 5844 5843 5844 5843 5843 5843 5842 5842 5841 5841 5840 5840 5840 5840 5839 5838 5838 5837 5836 5836 5835 5834 5833 5833 5833 5832 5832 5832 5832 5832 5831 5830 5830 5830 5829 5828 5828 5827 5826 5826 5825 5825 5824 5824 5823 5823 5823 5823 5822 5822 5821 5821 5820 5819 5818 5817 5816 5815 5814 5812 5811 5810 5808 5806 5805 5803 5801 5800
5829 5831 5832 5834 5836 5838 5839 5840 5840 5840 5841 5841 5842 5842 5843 5842 5842 5841 5841 5841 5841 5841 5841 5840 5840 5839 5839 5839 5839 5838 5838 5838 5837 5837 5836 5835 5835 5834 5833 5832 5831 5831 5831 5831 5831 5830 5830 5829 5829 5828 5828 5827 5827 5826 5825 5825 5825 5824 5823 5823 5822 5822 5822 5821 5821 5821 5820 5820 5819 5818 5818 5817 5816 5815 5814 5812 5811 5810 5808 5807 5805 5803 5802 5800 5799
5826 5827 5829 5831 5833 5835 5836 5837 5837 5838 5838 5839 5839 5840 5840 5839 5839 5838 5838 5839 5839 5839 5839 5838 5838 5837 5837 5837 5837 5837 5836 5836 5836 5835 5835 5834 5833 5832 5832 5831 5830 5830 5830 5829 5829 5829 5828 5828 5827 5826 5826 5825 5825 5824 5824 5823 5823 5822 5821 5821 5821 5821 5820 5819 5819 5819 5819 5818 5818 5817 5817 5816 5815 5813 5812 5811 5810 5808 5807 5805 5804 5802 5801 5799 5798
5822 5824 5826 5828 5830 5832 5833 5834 5835 5836 5836 5836 5836 5837 5837 5836 5835 5835 5835 5836 5837 5837 5837 5836 5836 5835 5835 5835 5835 5835 5834 5834 5834 5833 5833 5832 5831 5830 5830 5829 5829 5828 5828 5827 5827 5826 5826 5826 5826 5825 5824 5824 5823 5822 5822 5822 5821 5820 5820 5819 5819 5819 5818 5818 5817 5817 5817 5817 5816 5816 5815 5814 5813 5812 5811 5809 5808 5806 5805 5804 5802 5801 5799 5798 5796
5819 5821 5824 5826 5828 5830 5831 5831 5832 5833 5833 5833 5833 5834 5834 5833 5832 5832 5833 5834 5835 5835 5835 5834 5833 5833 5833 5832 5832 5832 5832 5832 5831 5831 5830 5830 5829 5828 5828 5827 5827 5826 5825 5825 5825 5824 5824 5824 5824 5823 5823 5822 5821 5820 5820 5820 5819 5818 5818 5818 5817 5816 5816 5816 5816 5816 5815 5815 5814 5813 5812 5811 5810 5810 5809 5807 5806 5804 5803 5802 5800 5799 5797 5795 5793
5815 5818 5820 5823 5826 5828 5828 5829 5829 5829 5830 5830 5830 5830 5830 5829 5829 5829 5830 5832 5832 5832 5832 5832 5831 5831 5830 5830 5830 5830 5830 5829 5829 5829 5828 5827 5827 5826 5825 5825 5825 5824 5823 5823 5822 5822 5822 5822 5822 5821 5821 5820 5819 5818 5818 5817 5817 5816 5816 5815 5815 5814 5814 5814 5814 5814 5814 5813 5813 5812 5810 5809 5808 5807 5806 5805 5804 5803 5801 5800 5798 5797 5795 5792 5790
5811 5814 5817 5820 5823 5825 5825 5825 5824 5825 5826 5827 5827 5826 5826 5826 5826 5827 5828 5829 5830 5830 5829 5829 5829 5829 5828 5828 5828 5828 5828 5827 5827 5826 5826 5825 5824 5824 5823 5823 5822 5822 5821 5821 5820 5820 5819 5819 5819 5819 5818 5817 5816 5816 5816 5815 5815 5814 5814 5813 5813 5812 5812 5812 5812 5812 5812 5812 5811 5810 5809 5808 5807 5806 5804 5803 5802 5801 5800 5798 5796 5794 5792 5789 5787
5807 5811 5814 5817 5820 5821 5820 5820 5820 5821 5823 5823 5823 5823 5823 5823 5823 5824 5825 5826 5827 5827 5827 5826 5826 5826 5826 5826 5826 5826 5826 5825 5825 5824 5823 5823 5822 5821 5821 5821 5820 5820 5819 5818 5818 5818 5817 5817 5816 5816 5816 5815 5814 5814 5814 5814 5813 5812 5812 5811 5811 5811 5811 5810 5811 5810 5810 5810 5809 5809 5807 5806 5805 5804 5803 5802 5800 5799 5798 5796 5794 5791 5789 5786 5784
5804 5807 5811 5814 5816 5817 5816 5815 5816 5818 5819 5819 5820 5820 5820 5820 5820 5822 5823 5823 5824 5824 5824 5824 5824 5824 5824 5824 5824 5824 5824 5823 5823 5822 5821 5820 5820 5819 5819 5818 5818 5817 5817 5816 5816 5815 5815 5814 5814 5814 5813 5813 5812 5811 5811 5811 5811 5810 5810 5810 5809 5809 5809 5809 5809 5809 5809 5808 5808 5807 5806 5804 5803 5802 5801 5800 5799 5797 5796 5793 5791 5788 5786 5784 5782
5802 5804 5807 5810 5812 5813 5812 5811 5812 5814 5815 5816 5816 5816 5817 5817 5818 5819 5820 5821 5821 5821 5822 5822 5821 5821 5822 5822 5822 5822 5821 5821 5820 5820 5819 5818 5817 5817 5817 5816 5816 5815 5815 5814 5814 5813 5812 5812 5812 5811 5811 5810 5810 5809 5809 5809 5809 5808 5808 5808 5808 5808 5808 5808 5808 5808 5807 5807 5806 5805 5804 5803 5802 5801 5800 5798 5797 5795 5793 5791 5788 5786 5784 5782 5780
5798 5800 5804 5806 5808 5808 5807 5807 5808 5810 5811 5812 5813 5813 5813 5814 5815 5816 5817 5818 5818 5819 5819 5819 5819 5819 5820 5820 5819 5819 5819 5818 5818 5817 5816 5816 5815 5815 5815 5814 5814 5813 5813 5812 5811 5810 5809 5809 5809 5809 5809 5808 5808 5808 5808 5807 5807 5807 5807 5807 5806 5806 5806 5806 5806 5806 5806 5805 5805 5803 5802 5801 5800 5799 5798 5796 5795 5793 5790 5788 5786 5784 5782 5779 5777
5794 5797 5800 5802 5803 5804 5803 5803 5805 5807 5808 5808 5809 5810 5810 5811 5812 5813 5815 5815 5816 5816 5816 5816 5816 5817 5817 5817 5817 5817 5817 5816 5816 5815 5814 5814 5813 5813 5813 5812 5811 5811 5810 5810 5809 5808 5807 5807 5806 5806 5806 5807 5806 5806 5806 5806 5805 5805 5805 5805 5805 5805 5805 5805 5805 5805 5804 5804 5803 5802 5801 5799 5798 5796 5795 5793 5792 5790 5787 5785 5783 5781 5779 5776 5774
5790 5793 5796 5798 5799 5800 5800 5801 5802 5804 5804 5805 5806 5807 5808 5808 5809 5811 5812 5812 5813 5813 5814 5814 5814 5815 5815 5815 5815 5815 5814 5814 5813 5813 5812 5811 5811 5811 5811 5810 5809 5809 5808 5807 5807 5806 5805 5804 5804 5804 5804 5805 5805 5804 5804 5804 5804 5804 5804 5804 5804 5804 5804 5804 5804 5803 5803 5802 5801 5800 5799 5797 5796 5794 5793 5791 5789 5787 5784 5782 5780 5778 5776 5773 5771
5786 5789 5791 5794 5796 5797 5797 5798 5799 5800 5800 5801 5803 5804 5805 5805 5806 5808 5809 5810 5810 5810 5811 5812 5812 5812 5812 5812 5813 5812 5812 5811 5811 5810 5809 5809 5809 5808 5808 5808 5807 5806 5806 5805 5804 5804 5803 5802 5802 5802 5803 5803 5803 5803 5803 5802 5802 5803 5803 5803 5803 5803 5803 5802 5802 5801 5801 5800 5799 5798 5797 5795 5793 5792 5790 5788 5786 5784 5782 5779 5777 5775 5773 5771 5768